Pasco, WA

10:23 PM PST on February 08, 2016 (GMT -0800)
Tri-Cities

Weather History for KPSC - March, 2014

Change the Weather History Date:

Tuesday, March 4, 2014

  Actual Average Record
Temperature  
Mean Temperature 46 °F 43 °F  
Max Temperature 64 °F 55 °F 67 °F (2012)
Min Temperature 28 °F 30 °F 16 °F (2015)
Degree Days  
Heating Degree Days 19 22  
Month to date heating degree days 124 91  
Since 1 July heating degree days 4353 3974  
Cooling Degree Days 0 0  
Month to date cooling degree days 0 0  
Year to date cooling degree days 0 0  
Moisture  
Dew Point 39 °F    
Average Humidity 72    
Maximum Humidity 100    
Minimum Humidity 43    
Precipitation  
Precipitation T in 0.02 in 0.46 in (1983)
Month to date precipitation 0.11 0.10  
Year to date precipitation 1.09 2.18  
Snow  
Snow 0.00 in - - ()
Snow Depth 0.00 in    
Sea Level Pressure  
Sea Level Pressure 29.95 in    
Wind  
Wind Speed 6 mph (SW)    
Max Wind Speed 28 mph    
Max Gust Speed 34 mph    
Visibility 10 miles    
Events      
T = Trace of Precipitation, MM = Missing Value Source: NWS Daily Summary

Daily Weather History Graph

Daily Weather History Graph

Search for Another Location

Airport or City:

Trip Planner

Search our weather history database for the weather conditions in past years. The results will help you decide how hot, cold, wet, or windy it might be!

Date:

Astronomy

Mar. 04, 2014 Rise Set
Actual Time 6:29 AM PST 5:47 PM PST
Civil Twilight 5:59 AM PST 6:17 PM PST
Nautical Twilight 5:25 AM PST 6:51 PM PST
Astronomical Twilight 4:50 AM PST 7:26 PM PST
Moon 8:04 AM PST (3/4) 10:15 PM PST (3/4)
Length of Visible Light 12h 17m
Length of Day
11h 17m
Waxing Crescent, 15% of the Moon is Illuminated
Mar 4
Waxing Crescent
Mar 8
First Quarter
Mar 16
Full
Mar 23
Last Quarter
Mar 30
New

Hourly Weather History & Observations

Time (PST) Temp. Windchill Dew Point Humidity Pressure Visibility Wind Dir Wind Speed Gust Speed Precip Events Conditions
12:53 AM 30.0 °F - 30.0 °F 100% 29.94 in 7.0 mi Calm Calm - N/A   Clear
1:53 AM 30.9 °F - 30.0 °F 96% 29.95 in 10.0 mi Calm Calm - N/A   Clear
2:53 AM 30.9 °F 27.5 °F 30.0 °F 96% 29.96 in 9.0 mi North 3.5 mph - N/A   Clear
3:53 AM 32.0 °F - 30.9 °F 96% 29.96 in 10.0 mi Calm Calm - N/A   Clear
4:53 AM 37.0 °F 31.0 °F 35.1 °F 93% 29.96 in 10.0 mi WSW 8.1 mph - N/A   Clear
5:53 AM 37.9 °F 35.5 °F 36.0 °F 93% 29.96 in 10.0 mi WSW 3.5 mph - N/A   Clear
6:53 AM 37.9 °F 35.5 °F 35.1 °F 89% 29.98 in 10.0 mi North 3.5 mph - N/A   Clear
7:53 AM 43.0 °F - 39.0 °F 86% 29.99 in 10.0 mi Calm Calm - N/A   Clear
8:53 AM 48.0 °F - 39.9 °F 74% 29.99 in 10.0 mi ESE 3.5 mph - N/A   Partly Cloudy
9:53 AM 50.0 °F - 41.0 °F 71% 30.00 in 10.0 mi SSW 3.5 mph - N/A   Overcast
10:53 AM 52.0 °F - 42.1 °F 69% 30.01 in 10.0 mi SW 4.6 mph - N/A   Scattered Clouds
11:53 AM 55.9 °F - 42.1 °F 60% 29.99 in 10.0 mi SSW 10.4 mph - 0.00 in   Mostly Cloudy
12:53 PM 62.1 °F - 42.1 °F 48% 29.97 in 10.0 mi SW 21.9 mph - N/A   Mostly Cloudy
1:48 PM 62.6 °F - 39.2 °F 42% 29.93 in 2.5 mi SW 20.7 mph 29.9 mph N/A   Haze
1:53 PM 63.0 °F - 39.9 °F 43% 29.94 in 10.0 mi WSW 19.6 mph 28.8 mph N/A   Partly Cloudy
2:53 PM 63.0 °F - 41.0 °F 45% 29.93 in 10.0 mi SW 20.7 mph 32.2 mph N/A   Scattered Clouds
3:53 PM 61.0 °F - 39.9 °F 46% 29.93 in 10.0 mi SW 25.3 mph 32.2 mph N/A   Scattered Clouds
4:53 PM 59.0 °F - 42.1 °F 53% 29.93 in 10.0 mi SW 11.5 mph - N/A   Clear
5:53 PM 57.0 °F - 42.1 °F 57% 29.92 in 10.0 mi SW 15.0 mph - N/A   Scattered Clouds
6:53 PM 57.0 °F - 41.0 °F 55% 29.93 in 10.0 mi WSW 18.4 mph - N/A   Clear
7:53 PM 54.0 °F - 41.0 °F 62% 29.93 in 10.0 mi Calm Calm - N/A   Clear
8:53 PM 54.0 °F - 42.1 °F 64% 29.93 in 10.0 mi WSW 12.7 mph - N/A   Clear
9:05 PM 53.1 °F - 42.1 °F 66% 29.93 in 10.0 mi SSW 10.4 mph - N/A   Clear
9:53 PM 50.0 °F - 42.1 °F 74% 29.94 in 10.0 mi SW 8.1 mph - N/A   Clear
10:53 PM 48.9 °F - 42.1 °F 77% 29.92 in 10.0 mi SE 4.6 mph - N/A   Partly Cloudy
11:53 PM 48.0 °F - 42.1 °F 80% 29.91 in 10.0 mi East 5.8 mph - N/A   Clear